Wynola (221) Station Data

Red Flag Warning: Yes
Fire Weather Zone: 258
SDGE Region: Ramona
Lat/Lon: 33.105/-116.603

Observations

Time Wind Speed/Gust Temp(F) RH Fuel Moist Fuel Temp(F) Dewpt(F) Tmax(F) Tmin(F) Accum Precip 10-min Precip SL Press(mb)
6/27 5:10pm 296 11 G 24 81° 13% - - 26° 86.7° 68.5° - - -
6/27 5:00pm 293 10 G 26 81° 13% - - 27° 86.7° 68.5° - - -
6/27 4:50pm 295 9 G 22 82° 13% - - 26° 86.7° 68.5° - - -
6/27 4:40pm 294 10 G 22 82° 12% - - 24° 86.7° 68.5° - - -
6/27 4:30pm 297 9 G 21 83° 11% - - 24° 86.7° 68.5° - - -
6/27 4:20pm 293 11 G 23 82° 11% - - 22° 86.7° 68.5° - - -
6/27 4:10pm 295 10 G 20 83° 10% - - 22° 86.7° 68.5° - - -
6/27 4:00pm 294 10 G 25 83° 11% - - 22° 86.7° 68.5° - - -
6/27 3:50pm 283 11 G 24 83° 11% - - 22° 86.7° 68.5° - - -
6/27 3:40pm 289 10 G 21 83° 10% - - 22° 86.7° 68.5° - - -
6/27 3:30pm 301 10 G 20 84° 10% - - 22° 86.7° 68.5° - - -
6/27 3:20pm 302 10 G 23 84° 10% - - 22° 86.7° 68.5° - - -
6/27 3:10pm 299 10 G 21 85° 11% - - 24° 86.7° 68.5° - - -
6/27 3:00pm 304 10 G 21 84° 11% - - 25° 86.7° 68.5° - - -
6/27 2:50pm 296 10 G 22 85° 12% - - 26° 86.7° 68.5° - - -
6/27 2:40pm 297 10 G 21 84° 13% - - 27° 86.7° 68.5° - - -
6/27 2:30pm 299 10 G 22 84° 13% - - 28° 86.7° 68.5° - - -
6/27 2:20pm 291 11 G 20 84° 12% - - 26° 86.7° 68.5° - - -
6/27 2:10pm 298 9 G 19 85° 12% - - 27° 86.7° 68.5° - - -
6/27 2:00pm 282 8 G 18 85° 11% - - 25° 86.7° 68.5° - - -
6/27 1:50pm 290 10 G 23 84° 11% - - 24° 86.7° 68.5° - - -
6/27 1:40pm 279 9 G 18 86° 11% - - 24° 86.7° 68.5° - - -
6/27 1:30pm 278 7 G 17 85° 11% - - 24° 86.7° 68.5° - - -
6/27 1:20pm 305 10 G 22 85° 10% - - 23° 86.7° 68.5° - - -
6/27 1:10pm 295 10 G 19 85° 11% - - 23° 86.7° 68.5° - - -
6/27 1:00pm 294 8 G 18 85° 10% - - 24° 86.7° 68.5° - - -
6/27 12:50pm 290 7 G 16 85° 11% - - 24° 85.8° 68.5° - - -
6/27 12:40pm 291 8 G 16 84° 11% - - 24° 85.6° 68.5° - - -
6/27 12:30pm 283 9 G 20 84° 11% - - 24° 84.6° 68.5° - - -
6/27 12:20pm 271 8 G 20 84° 11% - - 23° 84.6° 68.5° - - -
6/27 12:10pm 289 8 G 18 84° 11% - - 24° 84.6° 68.5° - - -
6/27 12:00pm 294 9 G 19 83° 11% - - 23° 84° 68.5° - - -
6/27 11:50am 289 9 G 19 83° 11% - - 23° 83.6° 68.5° - - -
6/27 11:40am 292 8 G 21 83° 11% - - 23° 83.6° 68.5° - - -
6/27 11:30am 291 9 G 19 83° 11% - - 23° 83.3° 68.5° - - -
6/27 11:20am 287 8 G 18 83° 11% - - 23° 82.9° 68.5° - - -
6/27 11:10am 292 9 G 18 82° 11% - - 23° 82.8° 68.5° - - -
6/27 11:00am 283 7 G 18 82° 11% - - 23° 82.8° 68.5° - - -
6/27 10:50am 285 7 G 15 82° 12% - - 24° 82.8° 68.5° - - -
6/27 10:40am 290 8 G 17 82° 11% - - 23° 82.2° 68.5° - - -
6/27 10:30am 282 7 G 18 81° 12% - - 24° 82.2° 68.5° - - -
6/27 10:20am 287 8 G 15 81° 12% - - 23° 81.6° 68.5° - - -
6/27 10:10am 279 6 G 16 81° 12% - - 24° 81.6° 68.5° - - -
6/27 10:00am 282 7 G 15 80° 12% - - 23° 80.8° 68.5° - - -
6/27 9:50am 280 7 G 18 80° 13% - - 24° 80.3° 68.5° - - -
6/27 9:40am 281 8 G 16 79° 12% - - 23° 80° 68.5° - - -
6/27 9:30am 298 8 G 17 79° 13% - - 24° 80° 68.5° - - -
6/27 9:20am 299 6 G 14 79° 13% - - 24° 79.7° 68.5° - - -
6/27 9:10am 293 7 G 15 79° 13% - - 23° 79° 68.5° - - -
6/27 9:00am 287 6 G 14 78° 13% - - 23° 79° 68.5° - - -
6/27 8:50am 291 7 G 14 78° 13% - - 23° 79° 68.5° - - -
6/27 8:40am 309 8 G 13 78° 12% - - 21° 78.5° 68.5° - - -
6/27 8:30am 311 8 G 14 77° 11% - - 20° 78° 68.5° - - -
6/27 8:20am 310 9 G 14 77° 11% - - 19° 77.6° 68.5° - - -
6/27 8:10am 313 8 G 14 77° 11% - - 19° 77.3° 68.5° - - -
6/27 8:00am 313 7 G 11 77° 11% - - 19° 77.1° 68.5° - - -
6/27 7:50am 312 6 G 11 76° 12% - - 19° 76.5° 68.5° - - -
6/27 7:40am 315 7 G 11 76° 12% - - 18° 75.9° 68.5° - - -
6/27 7:30am 315 7 G 11 75° 12% - - 18° 75.4° 68.5° - - -
6/27 7:20am 318 7 G 11 74° 12% - - 18° 74.9° 68.5° - - -
6/27 7:10am 315 7 G 11 73° 12% - - 18° 74° 68.5° - - -
6/27 7:00am 317 6 G 10 72° 13% - - 18° 73.2° 68.5° - - -
6/27 6:50am 322 7 G 9 71° 13% - - 18° 73.2° 68.5° - - -
6/27 6:40am 325 6 G 9 70° 13% - - 17° 73.2° 68.5° - - -
6/27 6:30am 322 6 G 9 70° 13% - - 17° 73.2° 68.5° - - -
6/27 6:20am 322 6 G 10 70° 13% - - 17° 73.2° 68.5° - - -
6/27 6:10am 323 7 G 10 70° 13% - - 18° 73.2° 68.5° - - -
6/27 6:00am 324 6 G 8 70° 14% - - 18° 73.2° 68.5° - - -
6/27 5:50am 322 6 G 10 70° 13% - - 18° 73.2° 68.5° - - -
6/27 5:40am 326 6 G 9 69° 14% - - 17° 73.2° 68.5° - - -
6/27 5:30am 327 5 G 8 69° 14% - - 17° 73.2° 68.5° - - -
6/27 5:20am 320 5 G 7 69° 14% - - 17° 73.2° 68.5° - - -
6/27 5:10am 320 5 G 8 69° 14% - - 17° 73.2° 68.5° - - -
6/27 5:00am 323 5 G 8 69° 14% - - 17° 73.2° 68.7° - - -
6/27 4:50am 323 5 G 7 69° 14% - - 17° 73.2° 68.7° - - -
6/27 4:40am 323 5 G 8 69° 14% - - 18° 73.2° 68.7° - - -
6/27 4:30am 324 5 G 7 69° 14% - - 18° 73.2° 68.8° - - -
6/27 4:20am 319 6 G 9 70° 14% - - 18° 73.2° 68.8° - - -
6/27 4:10am 319 7 G 12 70° 14% - - 18° 73.2° 68.8° - - -
6/27 4:00am 319 6 G 10 70° 14% - - 18° 73.2° 68.8° - - -
6/27 3:50am 320 6 G 9 70° 14% - - 19° 73.2° 68.8° - - -
6/27 3:40am 321 6 G 9 69° 15% - - 19° 73.2° 68.8° - - -
6/27 3:30am 318 5 G 9 69° 15% - - 19° 73.2° 68.9° - - -
6/27 3:20am 320 6 G 10 70° 15% - - 19° 73.2° 69.1° - - -
6/27 3:10am 322 6 G 10 70° 15% - - 19° 73.2° 69.3° - - -
6/27 3:00am 322 6 G 10 70° 15% - - 19° 73.2° 69.3° - - -
6/27 2:50am 321 6 G 9 70° 15% - - 20° 73.2° 69.3° - - -
6/27 2:40am 321 6 G 9 70° 15% - - 20° 73.2° 69.3° - - -
6/27 2:30am 327 7 G 11 70° 15% - - 20° 73.2° 69.3° - - -
6/27 2:20am 325 6 G 9 70° 15% - - 20° 73.2° 69.5° - - -
6/27 2:10am 326 7 G 10 70° 15% - - 20° 73.2° 69.7° - - -
6/27 2:00am 329 7 G 11 70° 14% - - 19° 73.2° 70.2° - - -
6/27 1:50am 328 7 G 10 71° 14% - - 19° 73.2° 70.3° - - -
6/27 1:40am 329 8 G 12 71° 14% - - 19° 73.2° 70.3° - - -
6/27 1:30am 328 7 G 13 71° 14% - - 19° 73.2° 70.3° - - -
6/27 1:20am 335 6 G 10 71° 14% - - 19° 73.2° 70.3° - - -
6/27 1:10am 333 6 G 9 71° 14% - - 19° 73.2° 70.3° - - -
6/27 1:00am 336 6 G 10 71° 14% - - 20° 73.2° 70.3° - - -
6/27 12:50am 334 7 G 11 71° 14% - - 20° 73.2° 70.6° - - -
6/27 12:40am 332 8 G 12 72° 14% - - 20° 73.2° 71.3° - - -
6/27 12:30am 326 7 G 14 72° 14% - - 20° 73.2° 71.8° - - -
6/27 12:20am 323 7 G 14 73° 13% - - 20° 73.2° 72.4° - - -
6/27 12:10am 322 7 G 12 73° 13% - - 20° 73.2° 72.7° - - -
6/27 12:00am 321 7 G 12 73° 14% - - 20° 92.4° 70.4° - - -
6/26 11:50pm 315 8 G 13 73° 14% - - 21° 92.4° 70.4° - - -
6/26 11:40pm 313 8 G 15 73° 14% - - 21° 92.4° 70.4° - - -
6/26 11:30pm 310 8 G 14 73° 14% - - 21° 92.4° 70.4° - - -
6/26 11:20pm 309 8 G 16 73° 14% - - 21° 92.4° 70.4° - - -
6/26 11:10pm 311 7 G 11 73° 14% - - 21° 92.4° 70.4° - - -
6/26 11:00pm 308 6 G 14 73° 14% - - 21° 92.4° 70.4° - - -
6/26 10:50pm 311 6 G 9 73° 14% - - 21° 92.4° 70.4° - - -
6/26 10:40pm 313 5 G 8 72° 14% - - 21° 92.4° 70.4° - - -
6/26 10:30pm 315 4 G 6 71° 15% - - 21° 92.4° 70.4° - - -
6/26 10:20pm 312 4 G 8 72° 14% - - 21° 92.4° 70.4° - - -
6/26 10:10pm 320 5 G 8 72° 14% - - 21° 92.4° 70.4° - - -
6/26 10:00pm 330 4 G 6 72° 14% - - 21° 92.4° 70.4° - - -
6/26 9:50pm 335 5 G 8 72° 14% - - 20° 92.4° 70.4° - - -
6/26 9:40pm 344 5 G 8 71° 14% - - 20° 92.4° 70.4° - - -
6/26 9:30pm 337 4 G 6 72° 14% - - 20° 92.4° 71° - - -
6/26 9:20pm 323 3 G 5 72° 14% - - 20° 92.4° 71.4° - - -
6/26 9:10pm 320 3 G 4 72° 14% - - 21° 92.4° 71.4° - - -
6/26 9:00pm 316 3 G 4 72° 15% - - 22° 92.4° 71.4° - - -
6/26 8:50pm 312 3 G 4 72° 15% - - 22° 92.4° 72° - - -
6/26 8:40pm 284 2 G 4 73° 15% - - 23° 92.4° 72.1° - - -
6/26 8:30pm 319 3 G 5 74° 15% - - 23° 92.4° 73.7° - - -
6/26 8:20pm 342 5 G 7 75° 15% - - 24° 92.4° 74.7° - - -
6/26 8:10pm 337 6 G 8 76° 13% - - 23° 92.4° 75.8° - - -
6/26 8:00pm 326 5 G 10 77° 13% - - 22° 92.4° 75.9° - - -
6/26 7:50pm 322 5 G 10 78° 13% - - 23° 92.4° 75.9° - - -
6/26 7:40pm 318 4 G 9 79° 14% - - 25° 92.4° 75.9° - - -
6/26 7:30pm 303 6 G 14 80° 14% - - 26° 92.4° 75.9° - - -
6/26 7:20pm 301 4 G 11 81° 14% - - 26° 92.4° 75.9° - - -
6/26 7:10pm 290 5 G 12 82° 13% - - 27° 92.4° 75.9° - - -
6/26 7:00pm 284 5 G 13 83° 12% - - 26° 92.4° 75.9° - - -
6/26 6:50pm 289 5 G 10 83° 11% - - 23° 92.4° 75.9° - - -
6/26 6:40pm 282 6 G 13 84° 10% - - 21° 92.4° 75.9° - - -
6/26 6:30pm 280 6 G 15 84° 10% - - 21° 92.4° 75.9° - - -
6/26 6:20pm 280 4 G 14 85° 11% - - 24° 92.4° 75.9° - - -
6/26 6:10pm 275 5 G 13 86° 11% - - 25° 92.4° 75.9° - - -
6/26 6:00pm 277 5 G 14 86° 11% - - 25° 92.4° 75.9° - - -
6/26 5:50pm 284 6 G 14 86° 11% - - 25° 92.4° 75.9° - - -
6/26 5:40pm 288 6 G 16 87° 11% - - 26° 92.4° 75.9° - - -
6/26 5:30pm 299 7 G 16 87° 10% - - 24° 92.4° 75.9° - - -
6/26 5:20pm 304 8 G 14 87° 10% - - 25° 92.4° 75.9° - - -
6/26 5:10pm 298 9 G 18 87° 10% - - 24° 92.4° 75.9° - - -
6/26 5:00pm 310 12 G 22 87° 10% - - 23° 92.4° 75.9° - - -
6/26 4:50pm 298 10 G 20 88° 10% - - 24° 92.4° 75.9° - - -
6/26 4:40pm 307 9 G 21 89° 10% - - 26° 92.4° 75.9° - - -
6/26 4:30pm 287 11 G 21 88° 10% - - 24° 92.4° 75.9° - - -
6/26 4:20pm 288 10 G 18 88° 10% - - 24° 92.4° 75.9° - - -
6/26 4:10pm 296 9 G 19 89° 10% - - 26° 92.4° 75.9° - - -
6/26 4:00pm 294 7 G 15 90° 11% - - 28° 92.4° 75.9° - - -
6/26 3:50pm 299 7 G 17 89° 10% - - 27° 92.4° 75.9° - - -
6/26 3:40pm 284 8 G 16 89° 11% - - 29° 92.4° 75.9° - - -
6/26 3:30pm 290 8 G 15 89° 11% - - 29° 92.4° 75.9° - - -
6/26 3:20pm 300 9 G 18 90° 12% - - 29° 92.4° 75.9° - - -
6/26 3:10pm 277 6 G 12 90° 13% - - 33° 92.4° 75.9° - - -
6/26 3:00pm 299 7 G 17 90° 13% - - 33° 92.4° 75.9° - - -
6/26 2:50pm 279 7 G 16 90° 14% - - 34° 92.4° 75.9° - - -
6/26 2:40pm 294 7 G 15 90° 14% - - 34° 92.4° 75.9° - - -
6/26 2:30pm 286 7 G 15 90° 14% - - 34° 92.4° 75.9° - - -
6/26 2:20pm 297 7 G 15 91° 13% - - 33° 92.4° 75.9° - - -
6/26 2:10pm 298 7 G 19 91° 13% - - 32° 92.4° 75.9° - - -
6/26 2:00pm 301 9 G 17 90° 11% - - 29° 92.4° 75.9° - - -
6/26 1:50pm 313 10 G 18 91° 10% - - 28° 92.4° 75.9° - - -
6/26 1:40pm 304 11 G 18 91° 10% - - 27° 92.4° 75.9° - - -
6/26 1:30pm 292 8 G 18 91° 12% - - 31° 92.4° 75.9° - - -
6/26 1:20pm 293 7 G 15 91° 11% - - 30° 92.4° 75.9° - - -
6/26 1:10pm 257 6 G 14 91° 12% - - 31° 92.2° 75.9° - - -
6/26 1:00pm 290 6 G 17 91° 12% - - 30° 92.2° 75.9° - - -
6/26 12:50pm 284 7 G 16 90° 12% - - 30° 92.2° 75.9° - - -
6/26 12:40pm 285 7 G 15 91° 11% - - 29° 92.2° 75.9° - - -
6/26 12:30pm 293 9 G 18 91° 10% - - 27° 92.2° 75.9° - - -
6/26 12:20pm 293 7 G 17 91° 11% - - 29° 92.2° 75.9° - - -
6/26 12:10pm 300 8 G 15 90° 10% - - 27° 91.3° 75.9° - - -
6/26 12:00pm 311 10 G 18 90° 10% - - 27° 91.3° 75.9° - - -
6/26 11:50am 303 9 G 17 90° 11% - - 28° 90.9° 75.9° - - -
6/26 11:40am 310 11 G 20 89° 11% - - 28° 90.4° 75.9° - - -
6/26 11:30am 303 11 G 23 89° 11% - - 27° 90.4° 75.9° - - -
6/26 11:20am 302 10 G 17 89° 11% - - 28° 90.4° 75.9° - - -
6/26 11:10am 292 9 G 17 90° 11% - - 28° 90.4° 75.9° - - -
6/26 11:00am 303 9 G 16 89° 11% - - 28° 90.2° 75.9° - - -
6/26 10:50am 298 9 G 16 89° 11% - - 28° 90.2° 75.9° - - -
6/26 10:40am 303 10 G 19 89° 11% - - 27° 90.2° 75.9° - - -
6/26 10:30am 309 8 G 17 90° 11% - - 28° 90.2° 75.9° - - -
6/26 10:20am 305 8 G 16 89° 11% - - 28° 89.7° 75.9° - - -
6/26 10:10am 302 9 G 15 89° 11% - - 28° 89.3° 75.9° - - -
6/26 10:00am 320 8 G 15 88° 12% - - 29° 88.8° 75.9° - - -
6/26 9:50am 307 8 G 14 88° 12% - - 30° 88.6° 75.9° - - -
6/26 9:40am 319 8 G 12 88° 12% - - 30° 88.6° 75.9° - - -
6/26 9:30am 322 7 G 13 88° 12% - - 29° 88.3° 75.9° - - -
6/26 9:20am 311 8 G 14 87° 12% - - 28° 87.8° 75.9° - - -
6/26 9:10am 308 7 G 14 87° 12% - - 28° 87.8° 75.9° - - -
6/26 9:00am 310 8 G 13 87° 12% - - 28° 87.3° 75.9° - - -
6/26 8:50am 304 8 G 12 87° 12% - - 28° 86.7° 75.9° - - -
6/26 8:40am 299 7 G 13 86° 12% - - 28° 86.7° 75.9° - - -
6/26 8:30am 302 6 G 11 86° 13% - - 29° 86.6° 75.9° - - -
6/26 8:20am 306 5 G 11 86° 13% - - 30° 86.1° 75.9° - - -
6/26 8:10am 301 5 G 11 85° 13% - - 29° 85.7° 75.9° - - -
6/26 8:00am 307 5 G 9 85° 13% - - 28° 85.2° 75.9° - - -
6/26 7:50am 310 6 G 11 85° 13% - - 27° 85° 75.9° - - -
6/26 7:40am 310 6 G 10 84° 13% - - 27° 84.3° 75.9° - - -
6/26 7:30am 305 5 G 9 83° 13% - - 28° 83.6° 75.9° - - -
6/26 7:20am 302 4 G 8 82° 14% - - 28° 82.7° 75.9° - - -
6/26 7:10am 300 5 G 8 82° 14% - - 27° 82° 75.9° - - -
6/26 7:00am 303 5 G 8 82° 13% - - 26° 82° 75.9° - - -
6/26 6:50am 303 5 G 8 81° 13% - - 25° 81.6° 75.9° - - -
6/26 6:40am 310 6 G 9 80° 13% - - 25° 80.8° 75.9° - - -
6/26 6:30am 307 6 G 8 80° 13% - - 25° 80.4° 75.9° - - -
6/26 6:20am 309 6 G 8 80° 13% - - 25° 80.4° 75.9° - - -
6/26 6:10am 312 6 G 8 79° 13% - - 25° 80.4° 75.9° - - -
6/26 6:00am 307 5 G 8 80° 14% - - 26° 80.4° 75.9° - - -